カタログに戻る

ATLAS 5 CENTAUR DEB

運用中HEO
NORAD 46865·DEBRIS·🇺🇸 United States

打ち上げ Oct 17, 2018 から Cape Canaveral Space Force Station

Loading…

次のパス (今後24時間)

TLE

最新Source: Space-Track

元期: Sep 11, 2026, 09:58 UTC

1 46865U 18079DW  26254.41551362 -.00000183  00000-0  00000-0 0  9993
2 46865  13.2228  22.5627 4529991 348.0659   3.9190  1.88836544 40404

AllMySatでATLAS 5 CENTAUR DEBをリアルタイム追跡

Download on the App Store